Back to catalog

GOES 4 AKM

AliveMEO
NORAD 11970·ROCKET BODY·🇺🇸 United States

Launched Sep 9, 1980 from Cape Canaveral Space Force Station

Loading…

Next Passes (next 24 hours)

TLE

FreshSource: Space-Track

Epoch: Sep 14, 2026, 10:07 UTC

1 11970U 80074C   26257.42216381 -.00000242  00000-0  00000-0 0  9995
2 11970  16.1786 313.8170 1642823 267.6016  99.9211  0.81535929 39258

Track GOES 4 AKM in real time with AllMySat

Download on the App Store